| time (UTC) | temp F | wind direction | speed knots | gust knots | rain 1hr in | rain 24hr in | rain mn in | humidity % | barometer mb |
| 20260507001727 | 54 | 346 | 5.2 | 7.8 | 0.00 | 0.00 | 0.00 | 33 | 1015.4 |
| 20260507001225 | 54 | 312 | 5.2 | 6.1 | 0.00 | 0.00 | 0.00 | 33 | 1015.5 |
| 20260507000721 | 54 | 17 | 7.0 | 8.7 | 0.00 | 0.00 | 0.00 | 32 | 1015.5 |
| 20260507000216 | 54 | 298 | 9.6 | 12.2 | 0.00 | 0.00 | 0.00 | 32 | 1015.5 |
| 20260506235714 | 54 | 312 | 13.0 | 14.8 | 0.00 | 0.00 | 0.00 | 32 | 1015.6 |
| 20260506235209 | 54 | 302 | 7.8 | 12.2 | 0.00 | 0.00 | 0.00 | 32 | 1015.6 |
| 20260506234706 | 55 | 325 | 6.1 | 6.1 | 0.00 | 0.00 | 0.00 | 32 | 1015.7 |
| 20260506234204 | 55 | 308 | 10.4 | 13.0 | 0.00 | 0.00 | 0.00 | 32 | 1015.6 |
| 20260506233701 | 55 | 350 | 11.3 | 12.2 | 0.00 | 0.00 | 0.00 | 32 | 1015.6 |
| 20260506233157 | 55 | 324 | 6.1 | 7.8 | 0.00 | 0.00 | 0.00 | 32 | 1015.7 |
| 20260506232653 | 55 | 347 | 7.8 | 8.7 | 0.00 | 0.00 | 0.00 | 32 | 1015.6 |
| 20260506232148 | 57 | 336 | 7.0 | 8.7 | 0.00 | 0.00 | 0.00 | 31 | 1015.7 |
| 20260506231645 | 56 | 302 | 5.2 | 6.1 | 0.00 | 0.00 | 0.00 | 31 | 1015.7 |
| 20260506231144 | 55 | 335 | 6.1 | 7.8 | 0.00 | 0.00 | 0.00 | 31 | 1015.9 |
| 20260506230641 | 55 | 329 | 11.3 | 13.0 | 0.00 | 0.00 | 0.00 | 31 | 1016.0 |
| 20260506230137 | 57 | 327 | 13.9 | 16.5 | 0.00 | 0.00 | 0.00 | 31 | 1015.9 |
| 20260506225634 | 56 | 315 | 5.2 | 8.7 | 0.00 | 0.00 | 0.00 | 31 | 1015.8 |
| 20260506225131 | 56 | 322 | 15.6 | 19.1 | 0.00 | 0.00 | 0.00 | 30 | 1015.8 |
| 20260506224628 | 55 | 330 | 10.4 | 13.0 | 0.00 | 0.00 | 0.00 | 32 | 1015.9 |
| 20260506224124 | 55 | 335 | 3.5 | 4.3 | 0.00 | 0.00 | 0.00 | 32 | 1015.9 |
| 20260506223620 | 55 | 327 | 8.7 | 10.4 | 0.00 | 0.00 | 0.00 | 32 | 1015.9 |
| 20260506223116 | 55 | 134 | 4.3 | 6.1 | 0.00 | 0.00 | 0.00 | 32 | 1016.1 |
| 20260506222613 | 55 | 2 | 10.4 | 13.0 | 0.00 | 0.00 | 0.00 | 32 | 1016.1 |
| 20260506222109 | 56 | 303 | 10.4 | 14.8 | 0.00 | 0.00 | 0.00 | 31 | 1016.1 |
| 20260506221607 | 55 | 351 | 6.1 | 7.8 | 0.00 | 0.00 | 0.00 | 33 | 1016.2 |
| 20260506221105 | 55 | 89 | 4.3 | 6.1 | 0.00 | 0.00 | 0.00 | 32 | 1016.0 |
| 20260506220601 | 55 | 328 | 9.6 | 12.2 | 0.00 | 0.00 | 0.00 | 32 | 1016.2 |
| 20260506220057 | 54 | 343 | 5.2 | 7.8 | 0.00 | 0.00 | 0.00 | 33 | 1016.1 |
| 20260506215553 | 55 | 319 | 11.3 | 14.8 | 0.00 | 0.00 | 0.00 | 32 | 1016.4 |
| 20260506215049 | 55 | 15 | 5.2 | 7.8 | 0.00 | 0.00 | 0.00 | 33 | 1016.2 |
| 20260506214546 | 56 | 354 | 13.9 | 16.5 | 0.00 | 0.00 | 0.00 | 32 | 1016.4 |
| 20260506214043 | 55 | 331 | 6.1 | 8.7 | 0.00 | 0.00 | 0.00 | 33 | 1016.4 |
| 20260506213541 | 54 | 302 | 11.3 | 14.8 | 0.00 | 0.00 | 0.00 | 33 | 1016.4 |
| 20260506213039 | 55 | 340 | 14.8 | 18.2 | 0.00 | 0.00 | 0.00 | 34 | 1016.6 |
| 20260506212535 | 55 | 306 | 5.2 | 6.1 | 0.00 | 0.00 | 0.00 | 34 | 1016.6 |
| 20260506212030 | 55 | 322 | 7.8 | 8.7 | 0.00 | 0.00 | 0.00 | 34 | 1016.6 |
| 20260506211526 | 55 | 310 | 7.8 | 10.4 | 0.00 | 0.00 | 0.00 | 34 | 1016.7 |
| 20260506211024 | 57 | 18 | 10.4 | 12.2 | 0.00 | 0.00 | 0.00 | 33 | 1016.6 |
| 20260506210520 | 55 | 354 | 11.3 | 13.0 | 0.00 | 0.00 | 0.00 | 34 | 1016.6 |
| 20260506210017 | 54 | 314 | 7.0 | 10.4 | 0.00 | 0.00 | 0.00 | 35 | 1016.8 |
| 20260506205514 | 54 | 324 | 5.2 | 7.8 | 0.00 | 0.00 | 0.00 | 36 | 1016.8 |
| 20260506205009 | 54 | 319 | 7.8 | 10.4 | 0.00 | 0.00 | 0.00 | 35 | 1017.0 |
| 20260506204507 | 54 | 296 | 6.1 | 7.8 | 0.00 | 0.00 | 0.00 | 35 | 1017.0 |
| 20260506204004 | 54 | 314 | 6.1 | 7.8 | 0.00 | 0.00 | 0.00 | 36 | 1017.2 |
| 20260506203502 | 54 | 315 | 9.6 | 12.2 | 0.00 | 0.00 | 0.00 | 35 | 1017.2 |
| 20260506202959 | 54 | 359 | 8.7 | 12.2 | 0.00 | 0.00 | 0.00 | 35 | 1017.0 |
| 20260506202456 | 54 | 307 | 7.8 | 8.7 | 0.00 | 0.00 | 0.00 | 35 | 1017.2 |
| 20260506201952 | 55 | 353 | 13.9 | 16.5 | 0.00 | 0.00 | 0.00 | 34 | 1017.3 |
| 20260506201450 | 55 | 305 | 8.7 | 12.2 | 0.00 | 0.00 | 0.00 | 35 | 1017.2 |
| 20260506200946 | 53 | 314 | 5.2 | 6.1 | 0.00 | 0.00 | 0.00 | 36 | 1017.5 |
| 20260506200442 | 54 | 330 | 10.4 | 12.2 | 0.00 | 0.00 | 0.00 | 35 | 1017.3 |
| 20260506195939 | 54 | 305 | 6.1 | 7.8 | 0.00 | 0.00 | 0.00 | 36 | 1017.2 |
| 20260506195436 | 55 | 325 | 7.8 | 14.8 | 0.00 | 0.00 | 0.00 | 36 | 1017.5 |
| 20260506194932 | 55 | 327 | 7.0 | 8.7 | 0.00 | 0.00 | 0.00 | 36 | 1017.6 |
| 20260506194430 | 54 | 292 | 10.4 | 13.0 | 0.00 | 0.00 | 0.00 | 35 | 1017.7 |
| 20260506193926 | 53 | 323 | 8.7 | 10.4 | 0.00 | 0.00 | 0.00 | 35 | 1017.6 |
| 20260506193424 | 53 | 355 | 12.2 | 16.5 | 0.00 | 0.00 | 0.00 | 35 | 1017.6 |
| 20260506192920 | 54 | 319 | 11.3 | 14.8 | 0.00 | 0.00 | 0.00 | 34 | 1017.7 |
| 20260506192417 | 54 | 310 | 13.0 | 16.5 | 0.00 | 0.00 | 0.00 | 35 | 1017.7 |
| 20260506191914 | 54 | 300 | 12.2 | 14.8 | 0.00 | 0.00 | 0.00 | 34 | 1017.8 |
| 20260506191410 | 53 | 337 | 7.8 | 10.4 | 0.00 | 0.00 | 0.00 | 36 | 1017.9 |
| 20260506190908 | 53 | 312 | 12.2 | 16.5 | 0.00 | 0.00 | 0.00 | 37 | 1017.9 |
| 20260506190404 | 53 | 330 | 10.4 | 18.2 | 0.00 | 0.00 | 0.00 | 36 | 1018.0 |
| 20260506185900 | 53 | 318 | 5.2 | 8.7 | 0.00 | 0.00 | 0.00 | 37 | 1017.9 |
| 20260506185358 | 53 | 333 | 14.8 | 19.1 | 0.00 | 0.00 | 0.00 | 37 | 1018.0 |
| 20260506184855 | 54 | 337 | 7.8 | 8.7 | 0.00 | 0.00 | 0.00 | 36 | 1018.1 |
| 20260506184352 | 53 | 17 | 14.8 | 18.2 | 0.00 | 0.00 | 0.00 | 37 | 1018.1 |
| 20260506183849 | 53 | 316 | 6.1 | 8.7 | 0.00 | 0.00 | 0.00 | 38 | 1018.3 |
| 20260506183344 | 51 | 328 | 5.2 | 8.7 | 0.00 | 0.00 | 0.00 | 39 | 1018.3 |
| 20260506182842 | 52 | 352 | 10.4 | 16.5 | 0.00 | 0.00 | 0.00 | 37 | 1018.4 |
| 20260506182339 | 51 | 39 | 4.3 | 6.1 | 0.00 | 0.00 | 0.00 | 39 | 1018.3 |
| 20260506181836 | 51 | 358 | 8.7 | 10.4 | 0.00 | 0.00 | 0.00 | 39 | 1018.3 |
| 20260506181334 | 52 | 25 | 12.2 | 14.8 | 0.00 | 0.00 | 0.00 | 36 | 1018.6 |
| 20260506180831 | 51 | 337 | 6.1 | 7.8 | 0.00 | 0.00 | 0.00 | 38 | 1018.4 |
| 20260506180327 | 50 | 325 | 10.4 | 13.0 | 0.00 | 0.00 | 0.00 | 39 | 1018.3 |
| 20260506175823 | 51 | 344 | 7.8 | 12.2 | 0.00 | 0.00 | 0.00 | 39 | 1018.6 |
| 20260506175320 | 52 | 337 | 14.8 | 20.9 | 0.00 | 0.00 | 0.00 | 38 | 1018.5 |
| 20260506174818 | 51 | 327 | 6.1 | 7.8 | 0.00 | 0.00 | 0.00 | 39 | 1018.8 |
| 20260506174315 | 51 | 333 | 11.3 | 13.0 | 0.00 | 0.00 | 0.00 | 37 | 1018.8 |
| 20260506173812 | 50 | 310 | 9.6 | 13.0 | 0.00 | 0.00 | 0.00 | 39 | 1018.8 |
| 20260506173309 | 50 | 320 | 9.6 | 18.2 | 0.00 | 0.00 | 0.00 | 40 | 1018.6 |
| 20260506172806 | 50 | 298 | 10.4 | 13.0 | 0.00 | 0.00 | 0.00 | 39 | 1019.0 |
| 20260506172306 | 51 | 291 | 15.6 | 20.9 | 0.00 | 0.00 | 0.00 | 38 | 1019.0 |
| 20260506171800 | 50 | 323 | 12.2 | 16.5 | 0.00 | 0.00 | 0.00 | 40 | 1019.0 |
| 20260506171257 | 49 | 342 | 5.2 | 7.8 | 0.00 | 0.00 | 0.00 | 39 | 1019.2 |
| 20260506170755 | 49 | 297 | 13.9 | 18.2 | 0.00 | 0.00 | 0.00 | 39 | 1019.1 |
| 20260506170251 | 50 | 62 | 7.8 | 10.4 | 0.00 | 0.00 | 0.00 | 40 | 1019.1 |
| 20260506165749 | 50 | 15 | 10.4 | 13.0 | 0.00 | 0.00 | 0.00 | 40 | 1019.0 |
| 20260506165246 | 49 | 319 | 12.2 | 14.8 | 0.00 | 0.00 | 0.00 | 40 | 1019.0 |
| 20260506164743 | 50 | 357 | 7.0 | 7.8 | 0.00 | 0.00 | 0.00 | 41 | 1019.0 |
| 20260506164240 | 49 | 286 | 7.0 | 8.7 | 0.00 | 0.00 | 0.00 | 42 | 1019.3 |
| 20260506163737 | 48 | 348 | 11.3 | 13.0 | 0.00 | 0.00 | 0.00 | 43 | 1019.2 |
| 20260506163231 | 48 | 89 | 10.4 | 13.0 | 0.00 | 0.00 | 0.00 | 42 | 1019.2 |
| 20260506162728 | 47 | 306 | 7.0 | 10.4 | 0.00 | 0.00 | 0.00 | 45 | 1019.1 |
| 20260506162226 | 47 | 92 | 7.0 | 8.7 | 0.00 | 0.00 | 0.00 | 43 | 1019.2 |
| 20260506161723 | 47 | 327 | 6.1 | 7.8 | 0.00 | 0.00 | 0.00 | 45 | 1019.2 |
| 20260506161220 | 49 | 14 | 7.8 | 10.4 | 0.00 | 0.00 | 0.00 | 43 | 1019.4 |
| 20260506160718 | 48 | 301 | 10.4 | 13.0 | 0.00 | 0.00 | 0.00 | 43 | 1019.3 |
| 20260506160214 | 49 | 65 | 9.6 | 12.2 | 0.00 | 0.00 | 0.00 | 43 | 1019.3 |
| 20260506155713 | 48 | 327 | 7.0 | 8.7 | 0.00 | 0.00 | 0.00 | 45 | 1019.1 |
| 20260506155209 | 48 | 327 | 8.7 | 12.2 | 0.00 | 0.00 | 0.00 | 45 | 1019.2 |
| 20260506153311 | 48 | 6 | 7.0 | 8.7 | 0.00 | 0.00 | 0.00 | 45 | 1019.4 |
| 20260506152808 | 47 | 314 | 11.3 | 14.8 | 0.00 | 0.00 | 0.00 | 46 | 1019.4 |
| 20260506152306 | 47 | 350 | 7.0 | 8.7 | 0.00 | 0.00 | 0.00 | 45 | 1019.4 |
| 20260506151804 | 47 | 301 | 10.4 | 14.8 | 0.00 | 0.00 | 0.00 | 46 | 1019.4 |
| 20260506151300 | 47 | 321 | 6.1 | 10.4 | 0.00 | 0.00 | 0.00 | 45 | 1019.4 |
| 20260506150757 | 47 | 65 | 5.2 | 6.1 | 0.00 | 0.00 | 0.00 | 46 | 1019.5 |
| 20260506150303 | 47 | 343 | 11.3 | 14.8 | 0.00 | 0.00 | 0.00 | 46 | 1019.6 |
| 20260506145751 | 46 | 324 | 9.6 | 10.4 | 0.00 | 0.00 | 0.00 | 47 | 1019.3 |
| 20260506145247 | 46 | 301 | 7.0 | 10.4 | 0.00 | 0.00 | 0.00 | 47 | 1019.4 |
| 20260506144745 | 46 | 326 | 7.0 | 8.7 | 0.00 | 0.00 | 0.00 | 47 | 1019.4 |
| 20260506144242 | 47 | 44 | 10.4 | 13.0 | 0.00 | 0.00 | 0.00 | 46 | 1019.4 |
| 20260506143739 | 46 | 333 | 4.3 | 6.1 | 0.00 | 0.00 | 0.00 | 47 | 1019.6 |
| 20260506143237 | 46 | 66 | 3.5 | 4.3 | 0.00 | 0.00 | 0.00 | 49 | 1019.5 |
| 20260506142735 | 46 | 305 | 7.8 | 12.2 | 0.00 | 0.00 | 0.00 | 47 | 1019.6 |
| 20260506142233 | 45 | 99 | 3.5 | 4.3 | 0.00 | 0.00 | 0.00 | 48 | 1019.4 |
| 20260506141731 | 45 | 337 | 3.5 | 6.1 | 0.00 | 0.00 | 0.00 | 48 | 1019.5 |
| 20260506141229 | 44 | 329 | 3.5 | 4.3 | 0.00 | 0.00 | 0.00 | 49 | 1019.4 |
| 20260506140726 | 45 | 6 | 4.3 | 7.8 | 0.00 | 0.00 | 0.00 | 49 | 1019.5 |
| 20260506140223 | 45 | 60 | 5.2 | 6.1 | 0.00 | 0.00 | 0.00 | 50 | 1019.5 |
| 20260506135719 | 44 | 357 | 4.3 | 6.1 | 0.00 | 0.00 | 0.00 | 50 | 1019.5 |
| 20260506135216 | 44 | 101 | 5.2 | 7.8 | 0.00 | 0.00 | 0.00 | 50 | 1019.5 |
| 20260506134713 | 44 | 347 | 5.2 | 7.8 | 0.00 | 0.00 | 0.00 | 51 | 1019.6 |
| 20260506134209 | 43 | 342 | 3.5 | 6.1 | 0.00 | 0.00 | 0.00 | 52 | 1019.6 |
| 20260506133706 | 43 | 58 | 4.3 | 6.1 | 0.00 | 0.00 | 0.00 | 53 | 1019.5 |
| 20260506133203 | 43 | 91 | 1.7 | 2.6 | 0.00 | 0.00 | 0.00 | 54 | 1019.5 |
| 20260506132700 | 42 | 65 | 1.7 | 1.7 | 0.00 | 0.00 | 0.00 | 57 | 1019.3 |
| 20260506132157 | 42 | 340 | 3.5 | 4.3 | 0.00 | 0.00 | 0.00 | 58 | 1019.3 |
| 20260506131655 | 41 | 40 | 2.6 | 4.3 | 0.00 | 0.00 | 0.00 | 60 | 1019.3 |
| 20260506131150 | 41 | 12 | 1.7 | 2.6 | 0.00 | 0.00 | 0.00 | 61 | 1019.3 |
| 20260506130647 | 40 | 336 | 3.5 | 4.3 | 0.00 | 0.00 | 0.00 | 63 | 1019.2 |
| 20260506130145 | 40 | 67 | 1.7 | 2.6 | 0.00 | 0.00 | 0.00 | 65 | 1019.3 |
| 20260506125643 | 39 | 65 | 1.7 | 1.7 | 0.00 | 0.00 | 0.00 | 67 | 1019.2 |
| 20260506125140 | 38 | 331 | 2.6 | 2.6 | 0.00 | 0.00 | 0.00 | 68 | 1019.1 |
| 20260506124638 | 37 | 18 | 1.7 | 2.6 | 0.00 | 0.00 | 0.00 | 69 | 1019.2 |
| 20260506124136 | 37 | 82 | 2.6 | 2.6 | 0.00 | 0.00 | 0.00 | 70 | 1019.2 |
| 20260506123633 | 36 | 337 | 1.7 | 2.6 | 0.00 | 0.00 | 0.00 | 72 | 1019.1 |
| 20260506123132 | 35 | 44 | 1.7 | 2.6 | 0.00 | 0.00 | 0.00 | 74 | 1019.0 |
| 20260506122628 | 34 | 72 | 0.9 | 1.7 | 0.00 | 0.00 | 0.00 | 74 | 1019.0 |
| 20260506122126 | 34 | 103 | 0.9 | 1.7 | 0.00 | 0.00 | 0.00 | 74 | 1019.0 |
| 20260506121623 | 33 | 55 | 0.9 | 1.7 | 0.00 | 0.00 | 0.00 | 75 | 1018.8 |
| 20260506121120 | 33 | 74 | 1.7 | 1.7 | 0.00 | 0.00 | 0.00 | 75 | 1018.8 |
| 20260506120618 | 33 | 56 | 1.7 | 2.6 | 0.00 | 0.00 | 0.00 | 76 | 1018.8 |
| 20260506120115 | 32 | 62 | 1.7 | 2.6 | 0.00 | 0.00 | 0.00 | 76 | 1018.8 |
| 20260506115613 | 32 | 90 | 1.7 | 1.7 | 0.00 | 0.00 | 0.00 | 76 | 1018.7 |
| 20260506115111 | 32 | 90 | 0.0 | 0.0 | 0.00 | 0.00 | 0.00 | 77 | 1018.6 |
| 20260506114608 | 31 | 99 | 0.9 | 1.7 | 0.00 | 0.00 | 0.00 | 77 | 1018.4 |
| 20260506114106 | 31 | 67 | 0.9 | 1.7 | 0.00 | 0.00 | 0.00 | 77 | 1018.3 |
| 20260506113604 | 31 | 95 | 0.9 | 1.7 | 0.00 | 0.00 | 0.00 | 77 | 1018.0 |
| 20260506113101 | 31 | 13 | 1.7 | 2.6 | 0.00 | 0.00 | 0.00 | 77 | 1018.3 |
| 20260506112557 | 30 | 23 | 1.7 | 2.6 | 0.00 | 0.00 | 0.00 | 78 | 1018.2 |
| 20260506112055 | 30 | 25 | 2.6 | 2.6 | 0.00 | 0.00 | 0.00 | 78 | 1018.2 |
| 20260506111553 | 31 | 85 | 1.7 | 2.6 | 0.00 | 0.00 | 0.00 | 77 | 1017.9 |
| 20260506111049 | 31 | 101 | 0.9 | 1.7 | 0.00 | 0.00 | 0.00 | 77 | 1018.1 |
| 20260506110547 | 32 | 97 | 1.7 | 1.7 | 0.00 | 0.00 | 0.00 | 76 | 1017.8 |
| 20260506110044 | 31 | 88 | 2.6 | 2.6 | 0.00 | 0.00 | 0.00 | 77 | 1017.8 |
| 20260506105540 | 30 | 21 | 2.6 | 2.6 | 0.00 | 0.00 | 0.00 | 77 | 1017.8 |
| 20260506105038 | 30 | 87 | 1.7 | 1.7 | 0.00 | 0.00 | 0.00 | 76 | 1017.8 |
| 20260506104536 | 31 | 345 | 2.6 | 2.6 | 0.00 | 0.00 | 0.00 | 75 | 1017.7 |
| 20260506104033 | 31 | 52 | 2.6 | 2.6 | 0.00 | 0.00 | 0.00 | 76 | 1017.7 |
| 20260506103530 | 31 | 340 | 1.7 | 2.6 | 0.00 | 0.00 | 0.00 | 74 | 1017.7 |
| 20260506103027 | 31 | 74 | 0.9 | 1.7 | 0.00 | 0.00 | 0.00 | 75 | 1017.6 |
| 20260506102526 | 32 | 76 | 1.7 | 2.6 | 0.00 | 0.00 | 0.00 | 74 | 1017.8 |
| 20260506102022 | 32 | 106 | 0.0 | 1.7 | 0.00 | 0.00 | 0.00 | 73 | 1017.7 |
| 20260506101519 | 31 | 72 | 1.7 | 2.6 | 0.00 | 0.00 | 0.00 | 75 | 1017.8 |
| 20260506101016 | 31 | 106 | 0.0 | 0.0 | 0.00 | 0.00 | 0.00 | 75 | 1017.7 |
| 20260506100514 | 32 | 108 | 0.0 | 0.0 | 0.00 | 0.00 | 0.00 | 73 | 1017.6 |
| 20260506100012 | 32 | 76 | 0.0 | 0.0 | 0.00 | 0.00 | 0.00 | 73 | 1017.5 |
| 20260506095511 | 32 | 94 | 0.9 | 1.7 | 0.00 | 0.00 | 0.00 | 73 | 1017.8 |
| 20260506095006 | 32 | 101 | 0.0 | 0.0 | 0.00 | 0.00 | 0.00 | 73 | 1017.7 |
| 20260506094505 | 32 | 80 | 0.9 | 1.7 | 0.00 | 0.00 | 0.00 | 74 | 1017.6 |
| 20260506094002 | 32 | 110 | 0.0 | 0.0 | 0.00 | 0.00 | 0.00 | 74 | 1017.6 |
| 20260506093500 | 32 | 74 | 0.9 | 1.7 | 0.00 | 0.00 | 0.00 | 72 | 1017.7 |
| 20260506092957 | 33 | 101 | 1.7 | 1.7 | 0.00 | 0.00 | 0.00 | 71 | 1017.5 |
| 20260506092455 | 33 | 313 | 3.5 | 4.3 | 0.00 | 0.00 | 0.00 | 71 | 1017.5 |
| 20260506091951 | 33 | 318 | 3.5 | 4.3 | 0.00 | 0.00 | 0.00 | 71 | 1017.3 |
| 20260506091450 | 33 | 9 | 2.6 | 4.3 | 0.00 | 0.00 | 0.00 | 72 | 1017.3 |
| 20260506090947 | 32 | 76 | 1.7 | 1.7 | 0.00 | 0.00 | 0.00 | 72 | 1017.5 |
| 20260506090445 | 33 | 104 | 0.9 | 1.7 | 0.00 | 0.00 | 0.00 | 71 | 1017.2 |
| 20260506085941 | 33 | 345 | 3.5 | 4.3 | 0.00 | 0.00 | 0.00 | 71 | 1017.2 |
| 20260506085438 | 33 | 85 | 2.6 | 2.6 | 0.00 | 0.00 | 0.00 | 70 | 1017.1 |
| 20260506084934 | 33 | 63 | 2.6 | 2.6 | 0.00 | 0.00 | 0.00 | 69 | 1017.5 |
| 20260506084431 | 33 | 44 | 2.6 | 2.6 | 0.00 | 0.00 | 0.00 | 70 | 1017.3 |
| 20260506083927 | 33 | 96 | 0.9 | 1.7 | 0.00 | 0.00 | 0.00 | 70 | 1017.1 |
| 20260506083424 | 33 | 89 | 2.6 | 2.6 | 0.00 | 0.00 | 0.00 | 70 | 1016.9 |
| 20260506082922 | 33 | 81 | 1.7 | 2.6 | 0.00 | 0.00 | 0.00 | 69 | 1017.1 |
| 20260506082419 | 34 | 38 | 1.7 | 2.6 | 0.00 | 0.00 | 0.00 | 68 | 1017.0 |
| 20260506081914 | 34 | 64 | 2.6 | 2.6 | 0.00 | 0.00 | 0.00 | 68 | 1017.0 |
| 20260506081413 | 34 | 63 | 1.7 | 2.6 | 0.00 | 0.00 | 0.00 | 67 | 1017.0 |
| 20260506080910 | 34 | 67 | 1.7 | 1.7 | 0.00 | 0.00 | 0.00 | 68 | 1016.9 |
| 20260506080406 | 34 | 62 | 1.7 | 1.7 | 0.00 | 0.00 | 0.00 | 67 | 1016.7 |
| 20260506073350 | 33 | 105 | 0.0 | 0.0 | 0.00 | 0.00 | 0.00 | 67 | 1016.6 |
| 20260506072847 | 34 | 109 | 0.0 | 0.0 | 0.00 | 0.00 | 0.00 | 66 | 1016.5 |
| 20260506072345 | 34 | 96 | 0.9 | 1.7 | 0.00 | 0.00 | 0.00 | 66 | 1016.4 |
| 20260506071842 | 33 | 108 | 0.0 | 0.0 | 0.00 | 0.00 | 0.00 | 68 | 1016.5 |
| 20260506071341 | 34 | 105 | 0.0 | 0.0 | 0.00 | 0.00 | 0.00 | 67 | 1016.5 |
| 20260506070837 | 36 | 97 | 0.9 | 1.7 | 0.00 | 0.00 | 0.00 | 64 | 1017.0 |
| 20260506070334 | 36 | 97 | 0.0 | 1.7 | 0.00 | 0.00 | 0.00 | 65 | 1017.0 |
| 20260506062311 | 36 | 344 | 2.6 | 2.6 | 0.00 | 0.00 | 0.00 | 64 | 1016.8 |
| 20260506061807 | 36 | 343 | 1.7 | 2.6 | 0.00 | 0.00 | 0.00 | 63 | 1016.8 |
| 20260506061304 | 36 | 336 | 2.6 | 2.6 | 0.00 | 0.00 | 0.00 | 62 | 1016.9 |
| 20260506060802 | 35 | 34 | 1.7 | 2.6 | 0.00 | 0.00 | 0.00 | 63 | 1016.8 |
| 20260506060300 | 35 | 84 | 1.7 | 2.6 | 0.00 | 0.00 | 0.00 | 64 | 1016.7 |
| 20260506051231 | 35 | 109 | 0.9 | 1.7 | 0.00 | 0.00 | 0.00 | 61 | 1016.2 |
| 20260506050730 | 36 | 29 | 1.7 | 2.6 | 0.00 | 0.00 | 0.00 | 60 | 1016.2 |
| 20260506050227 | 36 | 68 | 1.7 | 2.6 | 0.00 | 0.00 | 0.00 | 59 | 1016.3 |
| 20260506044717 | 37 | 64 | 2.6 | 2.6 | 0.00 | 0.00 | 0.00 | 59 | 1016.4 |
| 20260506044215 | 37 | 99 | 1.7 | 1.7 | 0.00 | 0.00 | 0.00 | 59 | 1016.4 |
| 20260506043712 | 37 | 307 | 2.6 | 2.6 | 0.00 | 0.00 | 0.00 | 59 | 1016.5 |
| 20260506043210 | 37 | 15 | 1.7 | 1.7 | 0.00 | 0.00 | 0.00 | 58 | 1016.5 |
| 20260506042708 | 37 | 349 | 3.5 | 4.3 | 0.00 | 0.00 | 0.00 | 58 | 1016.4 |
| 20260506042206 | 38 | 331 | 3.5 | 4.3 | 0.00 | 0.00 | 0.00 | 57 | 1016.5 |
| 20260506041704 | 38 | 48 | 2.6 | 2.6 | 0.00 | 0.00 | 0.00 | 56 | 1016.4 |
| 20260506041201 | 39 | 343 | 2.6 | 4.3 | 0.00 | 0.00 | 0.00 | 56 | 1016.4 |
| 20260506040658 | 39 | 321 | 1.7 | 2.6 | 0.00 | 0.00 | 0.00 | 56 | 1016.6 |
| 20260506040155 | 39 | 339 | 1.7 | 2.6 | 0.00 | 0.00 | 0.00 | 56 | 1016.6 |
| 20260506035652 | 39 | 67 | 2.6 | 2.6 | 0.00 | 0.00 | 0.00 | 55 | 1016.6 |
| 20260506035149 | 39 | 317 | 2.6 | 4.3 | 0.00 | 0.00 | 0.00 | 55 | 1016.6 |
| 20260506034645 | 39 | 47 | 1.7 | 2.6 | 0.00 | 0.00 | 0.00 | 55 | 1016.7 |
| 20260506034143 | 39 | 20 | 1.7 | 2.6 | 0.00 | 0.00 | 0.00 | 55 | 1016.5 |
| 20260506033640 | 39 | 324 | 2.6 | 2.6 | 0.00 | 0.00 | 0.00 | 54 | 1016.5 |
| 20260506033137 | 39 | 57 | 1.7 | 2.6 | 0.00 | 0.00 | 0.00 | 54 | 1016.4 |
| 20260506032634 | 39 | 86 | 2.6 | 2.6 | 0.00 | 0.00 | 0.00 | 54 | 1016.3 |
| 20260506032131 | 39 | 109 | 0.9 | 1.7 | 0.00 | 0.00 | 0.00 | 54 | 1016.3 |
| 20260506031628 | 39 | 112 | 0.0 | 1.7 | 0.00 | 0.00 | 0.00 | 54 | 1016.4 |
| 20260506031125 | 40 | 17 | 2.6 | 2.6 | 0.00 | 0.00 | 0.00 | 52 | 1016.2 |
| 20260506030623 | 41 | 69 | 1.7 | 2.6 | 0.00 | 0.00 | 0.00 | 52 | 1016.3 |
| 20260506030120 | 41 | 87 | 0.0 | 0.0 | 0.00 | 0.00 | 0.00 | 51 | 1016.4 |
| 20260506025617 | 42 | 52 | 1.7 | 1.7 | 0.00 | 0.00 | 0.00 | 50 | 1016.3 |
| 20260506025113 | 42 | 290 | 1.7 | 2.6 | 0.00 | 0.00 | 0.00 | 50 | 1016.2 |
| 20260506024611 | 42 | 90 | 1.7 | 2.6 | 0.00 | 0.00 | 0.00 | 50 | 1016.1 |
| 20260506024106 | 42 | 343 | 1.7 | 2.6 | 0.00 | 0.00 | 0.00 | 50 | 1016.1 |
| 20260506023602 | 42 | 46 | 3.5 | 4.3 | 0.00 | 0.00 | 0.00 | 48 | 1015.9 |
| 20260506023100 | 43 | 95 | 1.7 | 1.7 | 0.00 | 0.00 | 0.00 | 48 | 1015.8 |
| 20260506022558 | 43 | 80 | 1.7 | 2.6 | 0.00 | 0.00 | 0.00 | 48 | 1015.8 |
| 20260506022055 | 44 | 57 | 3.5 | 4.3 | 0.00 | 0.00 | 0.00 | 47 | 1015.7 |
| 20260506021553 | 43 | 14 | 1.7 | 2.6 | 0.00 | 0.00 | 0.00 | 47 | 1015.7 |
| 20260506021050 | 44 | 44 | 2.6 | 2.6 | 0.00 | 0.00 | 0.00 | 46 | 1015.5 |
| 20260506020547 | 44 | 1 | 4.3 | 6.1 | 0.00 | 0.00 | 0.00 | 46 | 1015.5 |
| 20260506020044 | 44 | 50 | 3.5 | 4.3 | 0.00 | 0.00 | 0.00 | 45 | 1015.2 |
| 20260506015542 | 45 | 296 | 1.7 | 2.6 | 0.00 | 0.00 | 0.00 | 45 | 1015.2 |
| 20260506015039 | 45 | 78 | 7.8 | 10.4 | 0.00 | 0.00 | 0.00 | 44 | 1015.2 |
| 20260506014536 | 45 | 52 | 3.5 | 4.3 | 0.00 | 0.00 | 0.00 | 44 | 1015.0 |
| 20260506014032 | 46 | 73 | 3.5 | 4.3 | 0.00 | 0.00 | 0.00 | 43 | 1015.1 |
| 20260506013531 | 45 | 75 | 5.2 | 7.8 | 0.00 | 0.00 | 0.00 | 43 | 1015.1 |
| 20260506013026 | 46 | 26 | 3.5 | 4.3 | 0.00 | 0.00 | 0.00 | 43 | 1015.1 |
| 20260506012522 | 46 | 10 | 1.7 | 2.6 | 0.00 | 0.00 | 0.00 | 43 | 1014.8 |
| 20260506012019 | 46 | 34 | 4.3 | 4.3 | 0.00 | 0.00 | 0.00 | 42 | 1014.8 |
| 20260506011517 | 47 | 54 | 5.2 | 7.8 | 0.00 | 0.00 | 0.00 | 41 | 1014.8 |
| 20260506011013 | 47 | 264 | 8.7 | 13.0 | 0.00 | 0.00 | 0.00 | 40 | 1015.0 |
| 20260506010513 | 48 | 99 | 6.1 | 8.7 | 0.00 | 0.00 | 0.00 | 41 | 1014.7 |
| 20260506010009 | 48 | 99 | 2.6 | 2.6 | 0.00 | 0.00 | 0.00 | 41 | 1014.8 |
| 20260506005506 | 48 | 319 | 7.8 | 10.4 | 0.00 | 0.00 | 0.00 | 40 | 1014.5 |
| 20260506005002 | 48 | 314 | 7.8 | 13.0 | 0.00 | 0.00 | 0.00 | 40 | 1014.6 |
| 20260506004459 | 48 | 14 | 4.3 | 6.1 | 0.00 | 0.00 | 0.00 | 40 | 1014.4 |
| 20260506003955 | 48 | 317 | 7.8 | 10.4 | 0.00 | 0.00 | 0.00 | 38 | 1014.4 |
| 20260506003452 | 48 | 320 | 13.0 | 16.5 | 0.00 | 0.00 | 0.00 | 38 | 1014.2 |
| 20260506002948 | 50 | 341 | 12.2 | 13.0 | 0.00 | 0.00 | 0.00 | 38 | 1014.3 |
| 20260506002444 | 48 | 331 | 4.3 | 6.1 | 0.00 | 0.00 | 0.00 | 40 | 1014.2 |